Location: Unspecified
(0.0000°N, 0.0000°E)
Time: 00:42:16
(UTC+01:00)

PROBA 2 - Visible Passes

Search period start: 23 November 2014 00:00
Search period end: 03 December 2014 00:00
Orbit: 708 x 726 km, 98.3° (Epoch: 21 November)

Date Brightness Start Highest point End Pass type
(mag) Time Alt. Az. Time Alt. Az. Time Alt. Az.
23 Nov ? 19:43:05 10° N 19:47:40 43° WNW 19:52:16 10° SSW visible
24 Nov ? 20:33:59 10° WNW 20:34:43 10° WNW 20:35:27 10° W visible
25 Nov ? 19:39:24 10° N 19:44:03 48° WNW 19:48:44 10° SSW visible
26 Nov ? 20:29:25 10° WNW 20:31:07 12° WNW 20:32:48 10° W visible
27 Nov ? 19:35:43 10° N 19:40:27 54° WNW 19:45:11 10° SSW visible
28 Nov ? 20:25:15 10° NW 20:27:30 13° WNW 20:29:45 10° WSW visible
29 Nov ? 19:32:04 10° N 19:36:50 60° WNW 19:41:37 10° SSW visible
30 Nov ? 06:20:09 10° ESE 06:22:38 14° ENE 06:25:08 10° NE visible
30 Nov ? 20:21:13 10° NW 20:23:53 15° WNW 20:26:34 10° WSW visible
01 Dec ? 19:28:25 10° N 19:33:13 68° WNW 19:38:02 10° SSW visible
02 Dec ? 06:16:59 10° ESE 06:19:01 13° ENE 06:21:03 10° NE visible
02 Dec ? 20:17:16 10° NW 20:20:17 17° WNW 20:23:17 10° WSW visible
